SL-16 DEB, 27690

Orbit data source: Space-Track

SL-16 DEB, 27690 is space debris in SSO originally from a launch on Mon, 10 Dec 2001 UTC launched from the Tyuratam Missile And Space Complex (TTMTR). Debris objects in space refer to the collection of defunct objects orbiting the Earth. Examples of debris include non-operational satellites, rocket bodies, and fragments generated from explosions, collisions, or faulty payload assembly.

Loading next visibility...
Identifier
27690, 2001-056J
Orbit
SSO
Country
Flag of CISCIS
Related business
Manufacturer
Yuzhnoe
Mission
Spacecraft
Bus & Motor
SEP MOTOR COVER, Unknown motor
Mass
~1 kg wet, ~1 kg dry
Launch date (UTC)
2001-12-10 (24 years ago)
Launch vehicle
Unknown
Launch site
Tyuratam Missile And Space Complex (TTMTR)
Object type
Payload
Rocket body
Debris
Shape & HBR
Cone, 0.5 m
Radar Cross Section
0.635 m², Small (<0.1 m²)

Expand to show TLE details & history
Last TLE update: 22 hours ago

TLE from 22 hours ago
0 SL-16 DEB
1 27690U 01056J   25260.13657191  .00000004  00000-0  95516-4 0  9998
2 27690 100.4122 121.7335 0182567 155.3805 359.3268 13.31056189154153
Epoch: 2025-09-17T03:16Z
TLE epoch observation values (Epoch: 2025-09-17T03:16:39.813Z)
Latitude
24.90202°
Longitude
-98.88125°
Altitude
1,008.315 km
Speed
7.416 km/s
True Right ascension
20h 26m 24s
True Declination
24° 46' 31"
Sunlit
Object was in full shadow at epoch
Visualization orbit readout
Latitude
Unknown
Longitude
Unknown
Altitude
Unknown
Speed
Unknown
Apparent Right ascension
Unknown
Apparent Declination
Unknown
Sunlit
N/A
Visualization observer readout
Local Sidereal Time
18:28:22
Azimuth
Unknown
Elevation
Unknown
Doppler factor
Unknown
Orbital elements
Apogee altitude
1,277.404 km
Perigee altitude
1,002.886 km
Semi-major axis
7,518.282 km
Eccentricity
0.01826
Inclination
100.4122°
RAAN
121.7335°
Arg. of periapsis
155.3805°
True anomaly
359.30165°
Mean anomaly
359.3268°
Eccentric anomaly
359.31428°
Mean motion
3.32939 °/min
Orbital period
108.13 mins
BSTAR
0.000095516
Loading maneuver chart data...
Computing Atmospheric mass density...
Loading historical data...
Loading historical data...
Loading historical data...
Loading historical data...
Loading historical data...
Loading historical data...
Loading historical data...

Documentation

Showing up to 5 results
|